Terug naar catalogus

DELTA 1 DEB

ActiefSSO
NORAD 21275·DEBRIS·🇺🇸 United States

Gelanceerd Jun 12, 1975 vanaf Vandenberg Space Force Base

Loading…

Volgende Passages (komende 24 uur)

TLE

VersSource: Space-Track

Epoch: Sep 14, 2026, 05:36 UTC

1 21275U 75052L   26257.23338155  .00000025  00000-0  10619-3 0  9995
2 21275  99.8636 164.3403 0033429 319.3931 193.5005 13.51919713744302

Volg DELTA 1 DEB in realtime met AllMySat

Download on the App Store